EHI
8 14 24 30 23 8 1 0 0 0 0 0 0 0 0 0 0 0 1 0 0 0 0 0 0 1 1 1 1 1 1 1 1 1 0 1 2 2 1 1 2 2 2 1 1 0 0 0 0
7 15 24 23 14 4 0 0 0 0 0 0 0 0 0 0 0 0 1 1 0 0 0 0 0 0 1 2 2 2 1 1 0 0 0 0 1 1 0 0 1 1 1 1 1 0 0 0 0
9 16 20 13 5 1 0 0 0 0 0 0 0 0 0 0 0 0 1 1 1 1 0 0 0 0 1 1 1 1 1 0 0 0 0 0 0 0 0 0 0 0 0 0 0 0 0 0 0
15 17 13 6 1 0 0 0 0 0 0 0 0 0 0 0 0 0 0 0 1 1 0 0 0 0 0 0 0 0 0 0 0 0 0 0 0 0 0 0 0 0 0 0 0 0 1 1 0
18 13 6 2 0 0 0 0 0 0 0 0 0 0 0 0 0 0 0 0 1 2 1 1 2 1 0 0 0 0 0 0 0 0 0 0 0 0 0 0 0 0 0 0 0 1 2 2 1
14 8 2 0 0 0 0 0 0 0 0 0 0 0 0 0 0 0 0 0 1 3 3 2 2 1 1 1 0 0 0 0 0 0 0 0 0 0 0 0 0 0 0 0 0 1 2 2 1
9 4 0 0 0 0 0 0 0 0 0 0 0 0 0 0 0 0 0 0 1 4 3 2 1 1 1 1 1 0 0 0 0 0 0 0 0 0 0 0 0 0 0 0 0 0 1 1 0
3 1 0 0 0 0 0 0 0 0 0 0 0 0 0 0 0 0 0 0 1 3 3 2 2 2 2 1 2 2 1 0 1 1 2 2 1 0 1 1 1 0 0 0 1 1 1 0 0
0 0 0 0 0 0 0 0 0 0 0 0 1 1 1 0 0 0 0 0 0 1 3 3 4 5 3 3 4 4 3 3 2 3 5 5 2 1 1 2 2 1 0 1 2 2 1 0 0
0 0 0 0 0 0 0 0 0 0 0 1 2 3 1 0 0 0 0 0 0 0 2 3 5 5 4 3 4 3 5 6 5 5 6 6 4 1 1 3 3 1 0 1 2 2 1 0 0
0 0 0 0 0 0 0 0 0 0 0 2 4 4 1 0 0 0 0 0 0 0 1 2 4 4 6 6 5 3 5 7 8 8 8 6 5 2 1 3 3 1 1 1 2 2 1 1 1
0 0 0 0 0 0 0 0 0 0 1 2 4 4 2 0 0 0 0 0 0 1 1 2 3 5 9 11 8 5 5 7 10 12 10 7 5 3 2 4 3 2 3 3 2 2 3 2 2
0 0 0 0 0 0 0 0 0 1 2 3 4 4 2 0 0 0 0 0 1 2 3 5 7 8 10 12 11 9 7 7 11 14 12 8 7 5 4 5 4 4 5 5 4 4 5 4 3
0 0 0 0 0 0 0 0 0 2 3 3 4 4 3 2 1 0 0 2 4 4 5 8 12 14 11 10 11 12 10 10 12 15 14 12 11 8 6 6 6 5 5 6 5 5 6 5 5
0 0 0 0 0 0 0 0 1 2 3 4 4 6 7 5 2 2 3 5 7 9 10 10 12 15 14 11 11 11 12 13 15 15 14 13 13 10 8 7 6 5 6 7 6 5 5 5 4
0 0 0 0 0 0 0 0 1 3 3 4 6 9 10 8 6 6 7 9 14 19 17 11 8 12 15 14 12 11 13 16 16 15 14 13 12 10 9 8 7 5 5 7 6 5 6 4 2
0 0 0 0 0 0 0 1 2 3 3 5 8 10 11 10 9 9 11 15 22 27 24 15 9 10 14 15 13 12 14 15 15 16 16 14 12 10 10 9 8 6 5 5 5 5 6 4 2
0 0 0 0 0 0 1 1 3 3 3 5 8 10 12 12 13 13 14 19 28 33 31 25 16 13 14 14 13 13 14 13 14 17 16 14 12 11 10 9 9 8 6 5 4 5 6 6 6
0 0 0 0 0 0 1 2 3 3 3 4 8 12 15 16 21 22 21 24 32 40 41 36 28 23 20 17 15 15 14 12 15 18 16 13 12 11 9 8 9 8 7 6 6 7 8 9 8
0 0 0 0 0 0 1 2 2 1 2 6 10 15 18 23 31 34 30 29 37 46 48 43 39 36 30 24 20 17 14 12 15 19 19 15 12 10 8 8 9 9 9 8 9 11 10 8 7
0 0 0 0 0 0 1 2 2 1 2 5 10 14 18 24 33 40 39 36 40 47 48 46 48 45 37 31 26 22 19 17 18 21 24 21 16 11 9 9 9 9 10 11 12 11 9 6 5
0 0 0 0 0 0 0 1 2 3 2 4 8 12 16 20 29 41 46 43 42 45 46 51 56 51 42 35 31 28 26 25 24 25 26 25 21 16 13 12 11 10 11 13 13 11 9 8 7
0 0 0 0 0 0 0 0 1 2 2 3 6 10 13 18 27 39 48 46 41 41 48 58 64 60 52 43 37 33 31 29 27 27 27 28 27 25 21 18 15 13 13 14 14 11 11 12 11
0 0 0 0 0 0 0 0 1 1 1 3 6 8 12 17 25 36 46 47 41 41 52 64 70 68 60 51 42 37 35 31 28 26 27 30 32 32 30 25 20 17 16 17 15 13 13 14 14
0 0 0 0 0 0 0 0 1 0 1 3 6 8 12 18 25 36 47 49 44 44 55 67 72 70 62 54 46 40 35 31 28 26 26 28 31 33 33 29 23 19 18 18 17 14 12 13 13
0 0 0 0 0 0 0 0 0 0 1 3 6 10 15 21 29 38 47 49 47 47 56 65 71 70 64 56 50 43 36 30 28 28 25 25 26 28 30 29 24 20 18 18 17 14 11 12 13
0 0 0 0 0 0 0 0 0 0 1 3 5 10 18 24 30 36 43 47 47 50 56 65 71 71 65 57 52 47 40 33 30 29 26 22 22 23 26 26 23 20 18 17 16 12 10 10 11
0 0 0 0 0 0 0 1 0 0 1 3 6 11 20 26 28 34 41 45 47 51 58 67 72 70 65 59 53 47 43 38 33 30 27 25 23 23 25 25 22 20 17 16 13 11 8 8 7
0 0 0 0 0 0 0 0 0 1 3 6 10 17 24 26 28 34 41 44 47 52 58 66 70 68 63 58 52 47 45 42 38 34 30 29 28 27 26 24 23 21 18 15 12 9 8 8 7
0 0 0 0 0 0 0 0 0 1 3 7 14 23 27 27 30 36 41 44 47 51 57 63 67 65 60 57 53 48 47 45 42 37 34 33 32 30 27 25 23 21 19 16 11 9 9 9 9
Wind_Speed
8 10 9 6 4 5 15 16 15 14 14 14 15 16 18 17 13 12 9 12 13 13 12 11 11 12 13 13 13 13 14 14 14 14 14 14 15 15 15 15 15 16 16 16 16 15 15 15 14
9 12 9 4 2 10 14 14 14 13 13 13 16 19 19 19 16 13 11 12 13 13 11 11 11 12 13 13 13 13 13 14 14 14 14 14 14 14 14 15 15 15 16 15 15 14 14 14 13
12 14 6 1 11 12 14 12 12 11 11 14 17 17 15 14 15 12 11 14 15 14 13 12 12 12 13 13 13 13 13 14 14 14 13 13 14 14 14 15 15 15 15 14 14 14 13 13 12
9 7 2 7 15 15 13 11 11 12 12 13 15 14 15 14 14 14 13 13 14 15 14 13 12 12 12 12 12 12 13 13 13 13 13 13 13 14 14 14 14 14 14 14 13 13 12 11 10
9 3 5 11 15 14 12 12 13 13 15 17 18 17 16 15 14 14 13 13 14 14 14 13 12 12 11 11 11 12 12 12 12 12 12 12 13 13 14 14 14 14 14 13 13 12 11 10 8
6 2 6 11 14 13 12 12 13 13 14 17 18 17 14 13 13 12 11 11 13 14 14 12 12 12 11 11 11 11 11 11 11 11 11 11 12 12 13 13 13 13 12 12 11 10 10 8 6
7 1 9 13 13 12 12 12 12 12 12 14 17 16 13 12 11 11 10 10 12 13 13 11 11 10 11 12 11 10 10 10 10 10 10 10 11 11 11 11 11 11 10 10 9 9 8 7 5
4 2 9 12 13 13 12 13 13 12 11 10 13 13 14 13 12 11 10 9 10 10 11 9 10 9 9 10 10 10 9 9 8 8 8 8 10 10 10 10 10 9 9 8 7 7 6 5 3
2 4 10 12 12 12 13 14 13 12 13 13 15 17 17 15 13 11 10 9 9 8 8 7 8 7 7 9 11 10 9 7 7 6 6 6 5 6 7 9 10 9 8 7 6 6 5 4 4
5 8 13 12 12 12 13 12 12 13 14 16 17 17 16 14 11 10 10 10 9 7 7 6 7 5 5 6 7 5 5 5 3 4 5 3 2 3 6 9 10 9 7 6 6 6 6 6 4
8 10 12 12 12 12 11 11 10 13 14 15 16 16 15 13 11 10 10 10 9 6 6 7 8 5 5 4 4 2 3 4 3 3 3 2 2 3 5 5 5 5 7 5 6 7 5 4 3
8 9 10 11 11 11 11 11 13 14 16 16 15 15 13 11 10 9 10 11 8 6 7 8 8 6 5 4 2 2 3 2 2 2 2 2 1 1 1 2 3 3 2 3 3 3 3 2 1
8 8 10 10 10 11 12 13 15 15 17 16 15 14 13 11 10 9 10 10 8 6 7 8 7 6 4 3 2 3 3 3 3 2 2 1 1 1 1 1 1 0 1 2 1 0 0 0 0
6 7 8 9 10 10 11 12 15 16 16 15 14 12 12 11 11 10 10 9 8 7 7 7 7 6 3 2 1 1 2 2 3 2 3 2 1 1 1 0 1 1 0 1 1 1 1 1 0
3 4 7 8 9 10 11 10 14 15 15 14 13 12 11 11 10 10 10 8 8 7 7 6 7 6 3 2 0 1 1 2 3 3 2 1 2 1 1 1 1 1 0 0 0 0 1 1 1
5 5 5 7 8 10 7 9 14 15 15 13 12 12 11 10 10 10 11 9 9 8 7 3 5 7 4 2 1 1 2 3 2 2 2 2 1 0 1 1 1 1 1 1 1 0 0 0 0
5 7 7 7 7 9 7 11 13 14 14 13 12 12 12 11 10 10 11 10 9 8 7 5 4 5 4 3 2 1 2 2 1 1 1 1 1 0 1 0 0 1 0 1 1 1 1 0 0
6 6 5 5 6 6 6 11 13 14 13 13 13 13 12 12 11 11 10 10 10 8 7 6 5 4 3 2 1 1 1 1 1 1 2 2 1 1 1 0 1 1 0 1 1 1 0 0 0
7 6 4 3 5 5 6 8 12 15 14 14 13 13 13 12 12 11 10 11 11 9 8 6 5 4 2 1 1 1 1 1 1 2 2 2 1 1 1 2 1 1 0 0 1 0 1 1 1
8 6 4 4 3 4 6 6 9 13 14 14 14 13 13 13 13 12 11 11 11 10 9 7 6 5 4 2 1 1 1 1 2 2 2 2 2 2 1 1 0 1 0 0 0 0 1 1 1
8 7 5 3 3 6 5 5 6 10 12 13 13 13 14 15 15 13 12 11 11 10 9 8 7 6 5 4 2 1 1 0 1 2 2 1 2 2 1 1 1 1 1 1 1 0 1 1 1
8 6 5 6 5 5 6 5 8 9 12 14 14 14 14 14 15 14 13 12 11 11 10 8 7 6 5 4 2 3 3 2 2 2 2 2 2 1 1 1 1 2 1 1 1 1 1 1 1
9 5 6 6 8 9 8 4 6 8 10 12 13 14 14 14 14 15 14 12 11 12 11 9 8 6 5 4 3 2 1 2 2 3 3 2 2 1 1 2 1 2 1 1 2 1 1 1 1
9 7 8 9 8 9 9 6 6 8 10 12 13 13 13 14 14 14 13 12 11 11 11 11 9 7 6 5 4 3 2 1 2 2 1 2 2 1 1 2 1 1 1 1 1 1 1 1 1
12 9 6 7 7 7 7 6 4 9 10 11 12 12 13 13 13 13 13 13 11 11 11 11 10 8 7 6 4 4 3 3 2 1 1 0 1 2 2 2 1 1 1 1 2 1 1 1 1
13 14 10 8 6 3 5 5 4 7 9 10 10 12 13 13 12 13 13 12 12 12 11 11 11 9 8 7 5 4 3 3 2 1 0 1 1 2 2 2 2 2 2 2 2 2 2 1 1
14 14 13 11 10 6 5 4 2 5 8 9 10 11 12 13 13 14 14 13 12 12 11 11 11 9 8 7 6 4 3 2 2 2 1 1 1 2 2 2 2 2 2 2 2 2 2 2 2
16 12 9 10 7 8 6 6 4 7 8 10 10 11 11 12 12 13 13 13 12 12 10 11 11 9 8 8 7 6 5 4 2 2 2 2 2 2 2 2 2 2 2 2 2 2 2 2 2
15 15 11 8 8 8 5 3 3 5 5 8 11 10 11 12 12 12 12 12 12 12 12 11 11 10 8 7 6 5 6 5 4 3 3 3 2 2 2 1 2 2 2 2 2 2 3 3 3
15 16 14 9 7 8 8 4 6 6 4 4 8 9 9 9 10 11 12 12 12 12 12 11 11 10 9 8 7 6 5 5 5 4 4 3 3 2 2 1 2 2 2 3 3 3 3 3 3
Wind_Direction
212 222 221 236 238 76 66 66 67 69 67 60 60 66 61 58 69 88 103 99 101 98 96 85 72 71 73 76 80 81 78 75 74 76 80 85 89 91 92 94 98 98 97 96 95 95 98 99 100
232 227 223 240 63 74 71 68 70 72 77 76 72 75 74 73 83 96 103 107 103 98 93 84 80 76 76 77 81 82 81 77 76 77 80 83 88 91 93 94 97 98 97 97 97 97 98 99 102
251 249 253 110 66 72 77 78 83 86 89 87 77 66 67 83 88 100 112 111 102 97 93 91 86 81 79 79 81 82 83 80 80 80 81 84 86 90 94 96 98 98 98 97 99 101 99 100 102
251 232 207 70 74 74 82 93 99 93 88 85 87 79 71 82 98 109 113 110 108 106 100 96 92 87 84 84 86 86 86 83 82 81 81 84 85 89 95 97 97 99 101 102 101 101 101 102 102
237 252 86 80 79 79 78 82 85 84 84 84 86 92 90 93 104 110 114 117 113 108 105 105 101 95 90 88 89 89 89 88 86 86 86 86 88 91 94 96 97 99 100 102 103 104 105 104 104
252 203 101 91 87 86 89 89 90 92 100 104 102 101 100 109 111 113 114 111 109 109 107 111 111 106 102 102 100 96 94 94 94 93 93 94 94 96 98 99 101 103 104 106 109 111 110 108 106
259 65 95 98 95 87 84 91 93 94 96 104 111 110 114 117 115 114 109 109 109 112 116 127 127 120 113 111 111 109 106 102 103 103 103 105 105 105 106 105 105 107 110 111 113 115 117 119 122
268 52 90 95 95 94 91 88 89 91 87 104 118 114 122 125 125 118 115 109 103 108 116 129 133 138 133 125 125 122 121 119 117 117 120 122 120 120 121 121 117 117 119 121 124 127 133 138 154
322 67 79 87 95 102 102 96 95 96 91 79 86 107 121 127 126 124 115 104 100 103 111 123 122 130 137 131 135 139 136 137 139 141 147 153 149 139 137 123 129 130 131 138 147 154 165 180 201
60 74 76 85 98 103 105 112 123 113 104 98 99 110 124 131 134 130 123 121 114 114 118 114 109 113 114 115 129 144 142 142 165 143 157 167 155 133 132 133 144 150 156 164 177 186 195 207 206
80 84 90 94 100 108 110 114 117 118 116 117 122 129 134 136 136 131 125 117 115 125 116 111 101 95 87 96 119 121 124 131 146 135 135 128 125 140 139 149 154 168 179 188 182 198 214 206 204
88 89 97 99 102 101 100 96 91 97 110 120 127 132 133 137 134 131 123 118 120 122 111 101 99 84 61 55 80 116 106 117 113 110 108 110 94 42 101 142 159 175 179 183 191 204 202 198 174
100 99 101 101 100 97 95 94 98 102 113 123 131 137 141 141 135 127 119 119 120 120 108 97 94 86 80 52 12 68 71 89 97 94 84 83 95 72 50 23 36 153 162 158 176 203 14 236 218
109 120 116 114 110 108 102 106 111 116 123 130 138 144 143 139 135 129 126 125 128 127 114 112 113 108 100 97 52 60 92 109 102 84 79 78 91 96 93 39 10 307 343 111 167 170 167 199 197
126 141 141 134 136 128 125 118 120 131 136 142 147 149 143 139 136 137 136 138 134 129 121 128 132 122 120 121 158 113 102 99 101 106 106 105 109 130 183 170 198 248 253 143 267 275 158 195 178
178 196 170 148 149 136 147 129 135 144 148 151 154 151 146 146 149 144 139 141 136 132 128 136 129 125 123 99 20 23 44 67 74 104 113 91 86 130 204 186 173 222 223 221 218 244 248 108 53
229 209 181 161 157 150 152 139 147 157 157 158 160 157 157 158 157 149 148 147 137 133 134 135 115 125 137 143 157 120 82 78 103 91 93 92 106 355 297 89 85 283 292 271 272 97 29 12 24
233 228 198 162 156 151 147 141 157 166 167 167 167 165 166 167 163 154 155 148 141 139 141 144 138 133 144 142 145 117 121 143 113 90 80 101 132 103 338 195 88 331 324 338 32 54 142 235 236
235 241 208 176 164 166 147 150 168 172 177 173 173 170 168 170 162 158 163 155 150 147 150 155 158 151 156 154 166 167 164 157 126 123 101 106 89 71 57 30 29 310 357 335 317 21 224 213 180
238 251 236 187 171 183 150 170 189 181 183 180 176 174 171 169 165 163 168 164 160 157 159 162 166 163 169 162 163 175 153 142 127 102 104 84 80 51 64 77 329 35 359 11 327 253 278 259 193
238 247 257 235 225 213 176 178 198 203 188 181 180 176 175 174 171 170 173 172 165 165 170 172 172 167 172 164 174 164 137 131 138 130 115 101 92 81 36 37 17 358 24 61 279 18 308 279 283
243 245 252 242 244 249 224 189 197 202 195 184 182 182 181 177 173 172 174 174 170 169 168 162 162 162 164 171 182 186 178 172 138 125 126 135 123 110 93 51 30 2 8 24 341 59 315 286 307
252 251 262 254 251 258 249 221 167 199 197 189 185 185 183 178 174 173 174 173 173 170 164 160 157 161 165 173 184 194 183 163 135 124 138 152 138 132 79 73 41 2 21 13 339 349 347 342 311
252 249 254 252 253 255 264 252 178 189 188 187 184 180 182 175 172 170 169 165 169 166 163 160 157 162 165 174 177 164 154 116 104 117 156 178 152 122 83 90 50 12 11 349 2 345 12 3 329
236 236 242 245 236 250 262 253 179 170 178 176 171 175 176 172 168 167 166 166 168 167 164 157 157 164 167 170 170 165 170 161 154 172 160 198 105 107 84 60 49 27 8 15 19 7 14 8 331
230 237 236 247 244 244 271 245 184 157 154 151 160 168 171 171 167 167 167 167 168 168 160 156 159 164 167 165 166 168 171 171 158 165 141 89 82 84 90 85 65 36 15 16 19 15 21 23 354
237 237 245 251 259 254 228 231 198 164 149 150 155 160 167 171 168 169 168 169 167 166 161 157 156 160 161 160 159 157 154 158 153 136 124 55 54 97 78 71 77 49 25 17 22 35 29 21 21
242 247 251 253 258 262 233 237 213 169 161 159 156 157 159 163 168 169 169 169 166 165 159 153 154 158 161 166 171 165 164 157 152 134 122 103 70 50 57 54 59 53 37 30 39 44 41 43 33
224 236 247 262 263 264 251 223 205 161 175 166 154 151 153 159 165 164 164 165 162 162 160 156 154 160 165 163 162 161 158 158 158 152 137 122 109 87 77 59 63 65 52 47 51 55 55 52 39
237 232 234 234 245 264 269 218 178 147 160 161 145 146 149 155 161 160 160 160 161 163 163 161 162 166 166 162 160 160 152 155 158 152 146 144 134 120 104 87 60 69 65 57 55 50 56 54 47